Overview Statistics Trail Chart Weather Telemetry Raw packets
 

This is the latest recevied weather packets stored in our database for station/object AB1AU. If no packets are shown the sender has not sent any weather packets the latest 10 day(s).

<< 21 22 23 24 25 26 27 >>
Time Temp. Humidity Pressure Rain* Wind** Luminosity Snow
1788474752 18.33° C 90% 1013.7 hPa 0 mm - 2 W/m² -
1788474447 18.33° C 90% 1013.7 hPa 0 mm - 2 W/m² -
1788474146 18.33° C 90% 1013.6 hPa 0 mm - 3 W/m² -
1788473841 18.33° C 90% 1013.5 hPa 0 mm - 3 W/m² -
1788473540 18.33° C 90% 1013.5 hPa 0 mm - 5 W/m² -
1788473238 18.33° C 90% 1013.4 hPa 0 mm - 4 W/m² -
1788472933 18.89° C 90% 1013.5 hPa 0 mm - 6 W/m² -
1788472632 18.89° C 90% 1013.4 hPa 0 mm - 8 W/m² -
1788472328 18.89° C 90% 1013.4 hPa 0 mm - 11 W/m² -
1788472026 18.33° C 90% 1013.4 hPa 0 mm - 13 W/m² -
1788471722 18.33° C 89% 1013.6 hPa 0 mm - 9 W/m² -
1788471416 18.33° C 89% 1013.6 hPa 0 mm - 7 W/m² -
1788471112 18.33° C 89% 1013.7 hPa 0 mm - 7 W/m² -
1788470808 18.89° C 89% 1013.6 hPa 0 mm - 5 W/m² -
1788470505 18.89° C 89% 1013.8 hPa 0 mm - 6 W/m² -
1788470215 18.89° C 89% 1013.7 hPa 0 mm - 5 W/m² -
1788469901 18.89° C 89% 1013.7 hPa 0 mm - 8 W/m² -
1788469596 18.89° C 89% 1013.7 hPa 0 mm - 10 W/m² -
1788469292 18.89° C 88% 1013.7 hPa 0 mm - 11 W/m² -
1788468991 18.89° C 88% 1013.7 hPa 0 mm - 18 W/m² -
1788468690 18.89° C 88% 1013.8 hPa 0 mm - 21 W/m² -
1788468386 18.89° C 87% 1013.7 hPa 0 mm - 15 W/m² -
1788468082 19.44° C 87% 1014 hPa 0 mm - 19 W/m² -
1788467778 19.44° C 87% 1013.8 hPa 0 mm - 20 W/m² -
1788467478 19.44° C 87% 1013.8 hPa 0 mm - 18 W/m² -

* Rain latest hour (hover to see other rain measurements)
** Current wind speed in m/s (hover to see current wind gust speed)